Location: *
(60.1759°S, 155.0663°W)
Time: 06:30:24
(UTC+00:00)

Cosmos 2221 Rocket - Pass Details

Date: 17 September 2019
Orbit: 621 x 647 km, 82.5° (Epoch: 17 October)

Event Time Altitude Azimuth Distance (km) Brightness Sun altitude
Rises 14:41:55 0° 195° (SSW) 3,002 7.1 -13.3°
Reaches altitude 10° 14:44:12 10° 197° (SSW) 2,081 6.3 -13.0°
Maximum altitude 14:48:48 70° 279° (W) 696 3.6 -12.5°
Drops below altitude 10° 14:53:19 10° 2° (N) 2,040 6.1 -11.9°
Sets 14:55:33 0° 4° (N) 2,938 6.9 -11.6°
